CW1792 Weather Reports


Display with metric or nautical units.
time (UTC)temp
F
wind
direction
speed
MPH
gust
MPH
rain 1hr
in
rain 24hr
in
rain mn
in
humidity
%
barometer
mb
20180720103204 62 340 1.0 2.0 0.00 0.00 0.00 83 1011.5
20180720102705 62 340 1.0 2.0 0.00 0.00 0.00 83 1011.5
20180720102205 62 31 0.0 0.0 0.00 0.00 0.00 83 1011.5
20180720101704 62 31 0.0 0.0 0.00 0.00 0.00 83 1011.5
20180720101204 62 31 0.0 0.0 0.00 0.00 0.00 83 1011.5
20180720100705 62 31 0.0 0.0 0.00 0.00 0.00 83 1011.5
20180720100205 62 31 0.0 0.0 0.00 0.00 0.00 82 1011.5
20180720095704 62 31 0.0 0.0 0.00 0.00 0.00 82 1011.4
20180720095204 62 31 0.0 0.0 0.00 0.00 0.00 82 1011.5
20180720094705 62 31 0.0 0.0 0.00 0.00 0.00 82 1011.4
20180720094205 63 31 0.0 0.0 0.00 0.00 0.00 82 1011.4
20180720093705 63 31 0.0 0.0 0.00 0.00 0.00 82 1011.4
20180720093205 63 31 0.0 0.0 0.00 0.00 0.00 82 1011.4
20180720092704 63 31 0.0 0.0 0.00 0.00 0.00 82 1011.3
20180720092204 63 31 0.0 0.0 0.00 0.00 0.00 81 1011.3
20180720091705 63 31 0.0 0.0 0.00 0.00 0.00 81 1011.3
20180720091205 63 31 0.0 0.0 0.00 0.00 0.00 81 1011.2
20180720090705 63 31 0.0 0.0 0.00 0.00 0.00 81 1011.3
20180720090205 63 31 0.0 0.0 0.00 0.00 0.00 81 1011.3
20180720085705 63 31 0.0 0.0 0.00 0.00 0.00 81 1011.4
20180720085204 63 31 0.0 0.0 0.00 0.00 0.00 81 1011.4
20180720084705 64 31 0.0 0.0 0.00 0.00 0.00 81 1011.4
20180720084205 64 31 0.0 0.0 0.00 0.00 0.00 81 1011.4
20180720083704 64 31 0.0 0.0 0.00 0.00 0.00 80 1011.5
20180720083205 64 31 0.0 0.0 0.00 0.00 0.00 80 1011.5
20180720082704 64 31 0.0 0.0 0.00 0.00 0.00 80 1011.5
20180720082205 64 31 0.0 0.0 0.00 0.00 0.00 80 1011.5
20180720081705 64 31 0.0 0.0 0.00 0.00 0.00 79 1011.5
20180720081205 64 31 0.0 0.0 0.00 0.00 0.00 79 1011.5
20180720080705 64 31 0.0 0.0 0.00 0.00 0.00 79 1011.5
20180720080205 64 31 0.0 0.0 0.00 0.00 0.00 79 1011.6
20180720075704 64 31 0.0 0.0 0.00 0.00 0.00 79 1011.6
20180720075205 65 31 0.0 0.0 0.00 0.00 0.00 78 1011.6
20180720074704 65 31 0.0 0.0 0.00 0.00 0.00 78 1011.6
20180720074206 65 31 0.0 0.0 0.00 0.00 0.00 78 1011.7
20180720073704 65 31 0.0 0.0 0.00 0.00 0.00 78 1011.7
20180720073204 65 31 0.0 0.0 0.00 0.00 0.00 77 1011.7
20180720072704 65 31 0.0 0.0 0.00 0.00 0.00 77 1011.7
20180720072204 65 31 0.0 0.0 0.00 0.00 0.00 77 1011.7
20180720071705 66 31 0.0 0.0 0.00 0.00 0.00 76 1011.7
20180720071204 66 31 0.0 0.0 0.00 0.00 0.00 76 1011.8
20180720070705 66 31 0.0 0.0 0.00 0.00 0.00 76 1011.8
20180720070204 66 31 0.0 0.0 0.00 0.00 0.00 75 1011.8
20180720065704 66 31 0.0 0.0 0.00 0.00 0.00 75 1011.8
20180720065204 67 31 0.0 0.0 0.00 0.00 0.00 75 1011.9
20180720064705 67 31 0.0 0.0 0.00 0.00 0.00 75 1011.9
20180720064205 67 31 0.0 0.0 0.00 0.00 0.00 74 1011.9
20180720063705 67 31 0.0 0.0 0.00 0.00 0.00 73 1011.8
20180720063204 68 31 0.0 0.0 0.00 0.00 0.00 73 1011.7
20180720062704 68 31 0.0 0.0 0.00 0.00 0.00 73 1011.7
20180720062205 68 31 0.0 0.0 0.00 0.00 0.00 72 1011.7
20180720061704 68 31 0.0 0.0 0.00 0.00 0.00 71 1011.7
20180720061205 68 31 0.0 0.0 0.00 0.00 0.00 70 1011.7
20180720060705 69 31 0.0 0.0 0.00 0.00 0.00 70 1011.9
20180720060204 69 31 0.0 0.0 0.00 0.00 0.00 69 1011.8
20180720055704 69 31 0.0 0.0 0.00 0.00 0.00 69 1011.8
20180720055205 69 31 0.0 0.0 0.00 0.00 0.00 68 1011.8
20180720054705 69 31 0.0 0.0 0.00 0.00 0.00 68 1011.8
20180720054205 70 31 0.0 0.0 0.00 0.00 0.00 67 1011.8
20180720053704 70 31 0.0 0.0 0.00 0.00 0.00 67 1011.8
20180720053204 70 32 0.0 0.0 0.00 0.00 0.00 67 1011.8
20180720052704 70 32 0.0 0.0 0.00 0.00 0.00 66 1011.8
20180720052204 70 32 0.0 0.0 0.00 0.00 0.00 66 1011.8
20180720051705 71 32 0.0 0.0 0.00 0.00 0.00 66 1011.7
20180720051205 71 32 0.0 3.0 0.00 0.00 0.00 66 1011.7
20180720050705 71 21 0.0 0.0 0.00 0.00 0.00 66 1011.6
20180720050205 71 21 0.0 0.0 0.00 0.00 0.00 65 1011.6
20180720045704 72 21 0.0 0.0 0.00 0.00 0.00 65 1011.7
20180720045204 72 21 0.0 0.0 0.00 0.00 0.00 65 1011.6
20180720044704 72 21 1.0 3.0 0.00 0.00 0.00 64 1011.6
20180720044204 73 28 0.0 0.0 0.00 0.00 0.00 63 1011.6
20180720043705 73 31 0.0 1.0 0.00 0.00 0.00 63 1011.5
20180720043204 73 31 0.0 0.0 0.00 0.00 0.00 62 1011.4
20180720042705 73 32 1.0 2.0 0.00 0.00 0.00 62 1011.2
20180720042205 74 35 0.0 2.0 0.00 0.00 0.00 61 1011.2
20180720041704 74 35 0.0 3.0 0.00 0.00 0.00 60 1011.1
20180720041204 74 17 0.0 0.0 0.00 0.00 0.00 60 1011.1
20180720040705 75 17 0.0 1.0 0.00 0.00 0.00 60 1011.1
20180720040205 75 17 0.0 0.0 0.00 0.00 0.00 59 1011.1
20180720035704 75 17 0.0 0.0 0.00 0.00 0.00 59 1011.1
20180720035205 75 16 0.0 2.0 0.00 0.00 0.00 58 1011.0
20180720034704 76 0 0.0 1.0 0.00 0.00 0.00 58 1011.0
20180720034204 76 4 0.0 0.0 0.00 0.00 0.00 58 1011.0
20180720033705 76 11 0.0 3.0 0.00 0.00 0.00 57 1011.0
20180720033209 77 40 0.0 1.0 0.00 0.00 0.00 57 1010.9
20180720032704 77 40 1.0 3.0 0.00 0.00 0.00 57 1010.9
20180720032204 77 52 0.0 2.0 0.00 0.00 0.00 56 1010.9
20180720031705 78 12 0.0 3.0 0.00 0.00 0.00 56 1010.7
20180720031205 78 14 0.0 3.0 0.00 0.00 0.00 55 1010.8
20180720030704 78 346 1.0 3.0 0.00 0.00 0.00 55 1010.8
20180720030205 79 1 2.0 3.0 0.00 0.00 0.00 54 1010.7
20180720025704 79 336 2.0 6.0 0.00 0.00 0.00 54 1010.7
20180720025204 79 350 1.0 5.0 0.00 0.00 0.00 53 1010.7
20180720024704 80 356 2.0 5.0 0.00 0.00 0.00 53 1010.6
20180720024204 80 8 2.0 6.0 0.00 0.00 0.00 52 1010.6
20180720023704 80 351 0.0 3.0 0.00 0.00 0.00 52 1010.6
20180720023204 81 3 2.0 6.0 0.00 0.00 0.00 52 1010.6
20180720022704 81 11 2.0 5.0 0.00 0.00 0.00 52 1010.5
20180720022204 81 348 2.0 6.0 0.00 0.00 0.00 52 1010.5
20180720021704 82 340 2.0 5.0 0.00 0.00 0.00 51 1010.5
20180720021204 82 18 3.0 6.0 0.00 0.00 0.00 50 1010.5
20180720020704 82 355 2.0 6.0 0.00 0.00 0.00 50 1010.5
20180720020205 83 13 2.0 5.0 0.00 0.00 0.00 50 1010.5
20180720015704 83 358 1.0 3.0 0.00 0.00 0.00 49 1010.5
20180720015204 83 2 3.0 6.0 0.00 0.00 0.00 49 1010.5
20180720014704 83 3 2.0 6.0 0.00 0.00 0.00 49 1010.5
20180720014204 84 2 3.0 5.0 0.00 0.00 0.00 49 1010.5
20180720013704 84 1 2.0 6.0 0.00 0.00 0.00 49 1010.4
20180720013204 84 24 2.0 7.0 0.00 0.00 0.00 49 1010.4
20180720012704 84 10 2.0 5.0 0.00 0.00 0.00 48 1010.3
20180720012204 85 46 2.0 6.0 0.00 0.00 0.00 48 1010.3
20180720011704 85 348 2.0 7.0 0.00 0.00 0.00 47 1010.3
20180720011204 85 19 2.0 6.0 0.00 0.00 0.00 47 1010.4
20180720010704 85 31 2.0 7.0 0.00 0.00 0.00 47 1010.4
20180720010205 85 342 3.0 7.0 0.00 0.00 0.00 47 1010.4
20180720005705 86 358 2.0 7.0 0.00 0.00 0.00 46 1010.4
20180720005204 86 34 3.0 6.0 0.00 0.00 0.00 46 1010.4
20180720004705 86 345 3.0 6.0 0.00 0.00 0.00 46 1010.4
20180720004204 86 1 2.0 7.0 0.00 0.00 0.00 46 1010.4
20180720003705 86 358 3.0 7.0 0.00 0.00 0.00 46 1010.5
20180720003204 86 355 3.0 8.0 0.00 0.00 0.00 45 1010.5
20180720002704 87 21 2.0 7.0 0.00 0.00 0.00 45 1010.5
20180720002205 87 346 3.0 6.0 0.00 0.00 0.00 45 1010.5
20180720001704 87 13 2.0 7.0 0.00 0.00 0.00 45 1010.5
20180720001204 87 354 2.0 7.0 0.00 0.00 0.00 45 1010.5
20180720000704 87 12 5.0 7.0 0.00 0.00 0.00 44 1010.5
20180720000204 87 336 4.0 8.0 0.00 0.00 0.00 45 1010.5
20180719235705 88 4 3.0 7.0 0.00 0.00 0.00 44 1010.5
20180719235204 88 22 3.0 10.0 0.00 0.00 0.00 44 1010.5
20180719234709 88 349 2.0 6.0 0.00 0.00 0.00 44 1010.5
20180719234204 88 353 5.0 7.0 0.00 0.00 0.00 43 1010.6
20180719233705 88 0 3.0 7.0 0.00 0.00 0.00 43 1010.6
20180719233204 89 336 4.0 8.0 0.00 0.00 0.00 43 1010.5
20180719232705 89 319 4.0 8.0 0.00 0.00 0.00 43 1010.6
20180719231705 89 22 5.0 7.0 0.00 0.00 0.00 43 1010.7
20180719231205 89 346 3.0 6.0 0.00 0.00 0.00 44 1010.7
20180719230704 89 11 2.0 6.0 0.00 0.00 0.00 43 1010.8
20180719230204 89 8 4.0 8.0 0.00 0.00 0.00 43 1010.8
20180719225705 89 350 3.0 9.0 0.00 0.00 0.00 43 1010.8
20180719225204 89 346 3.0 7.0 0.00 0.00 0.00 43 1010.8
20180719224704 89 357 2.0 5.0 0.00 0.00 0.00 43 1010.9
20180719224205 89 14 3.0 6.0 0.00 0.00 0.00 43 1010.9
20180719223704 88 359 3.0 7.0 0.00 0.00 0.00 43 1010.9
20180719223205 88 325 4.0 8.0 0.00 0.00 0.00 43 1011.0
20180719222707 88 336 3.0 8.0 0.00 0.00 0.00 44 1011.0
20180719222205 88 20 3.0 10.0 0.00 0.00 0.00 44 1011.0
20180719221704 88 347 3.0 7.0 0.00 0.00 0.00 45 1011.0
20180719221205 88 22 1.0 9.0 0.00 0.00 0.00 45 1011.1
20180719220704 88 10 2.0 7.0 0.00 0.00 0.00 46 1011.1
20180719220204 87 352 5.0 9.0 0.00 0.00 0.00 45 1011.2
20180719215704 87 331 5.0 9.0 0.00 0.00 0.00 46 1011.2
20180719215205 87 26 3.0 7.0 0.00 0.00 0.00 46 1011.3
20180719214704 87 330 4.0 10.0 0.00 0.00 0.00 46 1011.3
20180719214204 87 337 4.0 10.0 0.00 0.00 0.00 47 1011.3
20180719213704 87 353 3.0 7.0 0.00 0.00 0.00 46 1011.4
20180719213205 87 320 3.0 12.0 0.00 0.00 0.00 47 1011.4
20180719212704 87 347 3.0 8.0 0.00 0.00 0.00 47 1011.5
20180719212205 87 354 3.0 8.0 0.00 0.00 0.00 47 1011.6
20180719211704 86 345 3.0 8.0 0.00 0.00 0.00 46 1011.7
20180719211204 86 347 2.0 8.0 0.00 0.00 0.00 47 1011.8
20180719210704 86 328 4.0 9.0 0.00 0.00 0.00 47 1011.9
20180719210204 86 22 3.0 7.0 0.00 0.00 0.00 47 1012.0
20180719205704 86 20 2.0 10.0 0.00 0.00 0.00 47 1012.0
20180719205204 85 342 3.0 7.0 0.00 0.00 0.00 47 1012.0
20180719204704 85 335 3.0 7.0 0.00 0.00 0.00 47 1012.0
20180719204205 85 26 2.0 6.0 0.00 0.00 0.00 48 1012.0
20180719203704 85 318 3.0 7.0 0.00 0.00 0.00 48 1012.1
20180719203204 85 341 3.0 8.0 0.00 0.00 0.00 48 1012.1
20180719202704 85 354 3.0 10.0 0.00 0.00 0.00 49 1012.1
20180719202204 84 15 2.0 7.0 0.00 0.00 0.00 49 1012.1
20180719201705 84 16 2.0 7.0 0.00 0.00 0.00 49 1012.1
20180719201204 84 1 3.0 9.0 0.00 0.00 0.00 49 1012.2
20180719200704 83 40 4.0 8.0 0.00 0.00 0.00 49 1012.3
20180719200204 83 15 4.0 7.0 0.00 0.00 0.00 51 1012.4
20180719195705 83 359 1.0 3.0 0.00 0.00 0.00 50 1012.4
20180719195204 82 15 2.0 5.0 0.00 0.00 0.00 49 1012.5
20180719194704 82 339 2.0 6.0 0.00 0.00 0.00 49 1012.5
20180719194204 82 63 2.0 6.0 0.00 0.00 0.00 51 1012.6
20180719193704 81 359 2.0 5.0 0.00 0.00 0.00 51 1012.6
20180719193204 81 114 3.0 7.0 0.00 0.00 0.00 51 1012.6
20180719192704 80 16 3.0 7.0 0.00 0.00 0.00 51 1012.7
20180719192205 80 313 1.0 3.0 0.00 0.00 0.00 54 1012.7
20180719191704 80 357 3.0 6.0 0.00 0.00 0.00 52 1012.8
20180719191204 79 14 1.0 3.0 0.00 0.00 0.00 54 1012.9
20180719190704 79 0 1.0 5.0 0.00 0.00 0.00 53 1013.0
20180719190204 78 329 2.0 6.0 0.00 0.00 0.00 54 1013.0
20180719185704 78 347 2.0 3.0 0.00 0.00 0.00 55 1013.1
20180719185204 78 353 2.0 6.0 0.00 0.00 0.00 56 1013.1
20180719184704 77 1 2.0 6.0 0.00 0.00 0.00 57 1013.2
20180719184205 77 10 0.0 2.0 0.00 0.00 0.00 58 1013.2
20180719183705 76 22 1.0 6.0 0.00 0.00 0.00 59 1013.3
20180719183204 76 346 2.0 7.0 0.00 0.00 0.00 61 1013.3
20180719182705 75 329 2.0 5.0 0.00 0.00 0.00 61 1013.4
20180719182204 75 347 3.0 5.0 0.00 0.00 0.00 62 1013.4
20180719181704 74 55 1.0 3.0 0.00 0.00 0.00 65 1013.5
20180719181205 74 322 1.0 6.0 0.00 0.00 0.00 65 1013.5
20180719180704 73 55 2.0 6.0 0.00 0.00 0.00 67 1013.6
20180719180204 73 58 0.0 3.0 0.00 0.00 0.00 67 1013.7
20180719175707 73 59 0.0 3.0 0.00 0.00 0.00 67 1013.6
20180719175204 72 54 1.0 3.0 0.00 0.00 0.00 67 1013.7
20180719174704 72 0 1.0 3.0 0.00 0.00 0.00 68 1013.8
20180719174204 71 324 2.0 3.0 0.00 0.00 0.00 68 1013.8
20180719173704 71 357 1.0 6.0 0.00 0.00 0.00 68 1014.0
20180719173208 70 342 2.0 5.0 0.00 0.00 0.00 70 1014.0
20180719172704 70 323 3.0 5.0 0.00 0.00 0.00 72 1013.9
20180719172204 70 40 2.0 3.0 0.00 0.00 0.00 73 1014.0
20180719171704 69 193 0.0 3.0 0.00 0.00 0.00 74 1014.0
20180719171204 69 187 2.0 3.0 0.00 0.00 0.00 75 1014.0
20180719170705 68 91 1.0 3.0 0.00 0.00 0.00 76 1014.0
20180719170204 68 80 2.0 3.0 0.00 0.00 0.00 76 1014.0
20180719165704 68 57 1.0 5.0 0.00 0.00 0.00 76 1014.1
20180719165204 67 346 1.0 5.0 0.00 0.00 0.00 76 1014.1
20180719164704 67 325 2.0 6.0 0.00 0.00 0.00 78 1014.1
20180719164205 67 33 1.0 3.0 0.00 0.00 0.00 79 1014.1
20180719163704 66 45 0.0 3.0 0.00 0.00 0.00 80 1014.1
20180719163204 66 0 2.0 3.0 0.00 0.00 0.00 80 1014.1
20180719162704 66 291 0.0 2.0 0.00 0.00 0.00 80 1014.2
20180719162204 65 289 1.0 2.0 0.00 0.00 0.00 82 1014.1
20180719161706 65 346 1.0 3.0 0.00 0.00 0.00 82 1014.2
20180719161204 65 0 0.0 1.0 0.00 0.00 0.00 82 1014.3
20180719160704 65 344 0.0 3.0 0.00 0.00 0.00 82 1014.3
20180719160204 64 5 1.0 2.0 0.00 0.00 0.00 83 1014.4
20180719155704 64 41 1.0 2.0 0.00 0.00 0.00 83 1014.3
20180719155204 64 41 0.0 3.0 0.00 0.00 0.00 84 1014.3
20180719154704 64 353 0.0 1.0 0.00 0.00 0.00 84 1014.3
20180719154204 64 353 1.0 3.0 0.00 0.00 0.00 84 1014.3
20180719153705 64 359 0.0 0.0 0.00 0.00 0.00 85 1014.2
20180719153204 63 0 0.0 0.0 0.00 0.00 0.00 85 1014.3
20180719152705 63 356 0.0 2.0 0.00 0.00 0.00 86 1014.3
20180719152205 63 327 1.0 2.0 0.00 0.00 0.00 86 1014.3
20180719151704 63 315 0.0 3.0 0.00 0.00 0.00 86 1014.2
20180719151204 63 316 1.0 5.0 0.00 0.00 0.00 87 1014.1
20180719150704 63 322 2.0 3.0 0.00 0.00 0.00 88 1014.1
20180719150204 63 315 0.0 0.0 0.00 0.00 0.00 88 1014.0
20180719145704 63 77 0.0 0.0 0.00 0.00 0.00 88 1013.9
20180719145204 63 76 0.0 0.0 0.00 0.00 0.00 88 1013.8
20180719144704 63 76 0.0 0.0 0.00 0.00 0.00 89 1013.8
20180719144204 62 78 0.0 0.0 0.00 0.00 0.00 89 1013.8
20180719143704 62 78 0.0 0.0 0.00 0.00 0.00 89 1013.8
20180719143204 62 78 0.0 0.0 0.00 0.00 0.00 89 1013.8
20180719142704 62 66 0.0 0.0 0.00 0.00 0.00 89 1013.8
20180719142204 62 68 0.0 0.0 0.00 0.00 0.00 89 1013.8
20180719141704 62 68 0.0 0.0 0.00 0.00 0.00 89 1013.8
20180719141204 62 62 0.0 0.0 0.00 0.00 0.00 89 1013.7
20180719140704 62 62 0.0 0.0 0.00 0.00 0.00 89 1013.7
20180719140204 62 62 0.0 0.0 0.00 0.00 0.00 89 1013.7
20180719135704 62 38 0.0 0.0 0.00 0.00 0.00 89 1013.7
20180719135205 62 358 0.0 0.0 0.00 0.00 0.00 89 1013.7
20180719134704 62 349 0.0 0.0 0.00 0.00 0.00 89 1013.7
20180719134204 62 349 0.0 0.0 0.00 0.00 0.00 89 1013.6
20180719133704 62 349 0.0 0.0 0.00 0.00 0.00 89 1013.7
20180719133204 62 349 0.0 0.0 0.00 0.00 0.00 89 1013.6
20180719132705 61 349 0.0 0.0 0.00 0.00 0.00 89 1013.6
20180719132204 61 349 0.0 0.0 0.00 0.00 0.00 89 1013.6
20180719131717 61 348 0.0 0.0 0.00 0.00 0.00 89 1013.4
20180719131205 61 348 0.0 0.0 0.00 0.00 0.00 89 1013.4
20180719130704 61 348 0.0 0.0 0.00 0.00 0.00 89 1013.4
20180719130204 61 348 0.0 0.0 0.00 0.00 0.00 89 1013.4
20180719125704 61 348 0.0 0.0 0.00 0.00 0.00 89 1013.4
20180719125212 61 348 0.0 0.0 0.00 0.00 0.00 89 1013.4
20180719124704 61 348 0.0 0.0 0.00 0.00 0.00 88 1013.3
20180719124204 61 347 0.0 0.0 0.00 0.00 0.00 88 1013.3
20180719123704 61 347 0.0 0.0 0.00 0.00 0.00 88 1013.2
20180719123204 61 348 0.0 0.0 0.00 0.00 0.00 88 1013.2
20180719122704 61 348 0.0 0.0 0.00 0.00 0.00 88 1013.1
20180719122204 61 348 0.0 0.0 0.00 0.00 0.00 88 1013.1
20180719121705 61 347 0.0 0.0 0.00 0.00 0.00 88 1013.1
20180719121204 61 348 0.0 0.0 0.00 0.00 0.00 88 1013.1
20180719120704 61 348 0.0 0.0 0.00 0.00 0.00 88 1013.0
20180719120204 61 347 0.0 0.0 0.00 0.00 0.00 88 1013.0
20180719115704 61 348 0.0 0.0 0.00 0.00 0.00 88 1013.0
20180719115209 61 347 0.0 0.0 0.00 0.00 0.00 88 1013.0
20180719114705 61 348 0.0 0.0 0.00 0.00 0.00 88 1013.0
20180719114204 61 348 0.0 0.0 0.00 0.00 0.00 88 1013.0
20180719113709 61 348 0.0 0.0 0.00 0.00 0.00 88 1013.1
20180719113204 61 348 0.0 0.0 0.00 0.00 0.00 88 1013.1
20180719112704 61 348 0.0 0.0 0.00 0.00 0.00 87 1013.1
20180719112205 61 348 0.0 0.0 0.00 0.00 0.00 87 1013.1
20180719111705 61 347 0.0 0.0 0.00 0.00 0.00 87 1013.1
20180719111204 61 348 0.0 0.0 0.00 0.00 0.00 86 1013.1
20180719110704 61 348 0.0 0.0 0.00 0.00 0.00 86 1013.1
20180719110204 61 348 0.0 0.0 0.00 0.00 0.00 86 1013.1
20180719105704 61 348 0.0 0.0 0.00 0.00 0.00 86 1013.1
20180719105204 61 348 0.0 0.0 0.00 0.00 0.00 86 1013.1
20180719104704 61 347 0.0 0.0 0.00 0.00 0.00 86 1013.2
20180719104204 61 348 0.0 0.0 0.00 0.00 0.00 86 1013.1
20180719103704 61 347 0.0 0.0 0.00 0.00 0.00 86 1013.1